AirNav   Air Wisconsin Up To $57,000 Bonus
 
 990 users online  

71J Ozark/Blackwell Field Airport
Ozark, Alabama, USA

GOING TO OZARK?


FAA INFORMATION EFFECTIVE 26 JANUARY 2023

Location

FAA Identifier: 71J
Lat/Long: 31-25-54.5232N 085-37-13.9221W
31-25.908720N 085-37.232035W
31.4318120,-85.6205339
(estimated)
Elevation: 357.9 ft. / 109.1 m (surveyed)
Variation: 04W (2015)
From city: 2 miles SE of OZARK, AL
Time zone: UTC -6 (UTC -5 during Daylight Saving Time)
Zip code: 36360

Airport Operations

Airport use: Open to the public
Activation date: 06/1956
Control tower: no
ARTCC: JACKSONVILLE CENTER
FSS: ANNISTON FLIGHT SERVICE STATION
NOTAMs facility: ANB (NOTAM-D service available)
Attendance: MON-FRI 0800-1700
AFT HRS SVC CALL 334-432-0039.
Wind indicator: lighted
Segmented circle: yes
Lights: ACTVT REIL RWY 13 & 31; PAPI RWY 13 & 31; MIRL RWY 13/31 - CTAF.
Beacon: white-green (lighted land airport)
Operates sunset to sunrise.

Airport Communications

CTAF/UNICOM: 122.7
CAIRNS APPROACH: 125.4 [0600-2300]
CAIRNS DEPARTURE: 125.4 [0600-2300]
WX ASOS at DHN (11 nm SE): PHONE 334-983-5999
WX AWOS-3PT at HDL (16 nm E): 119.575 (334-693-0508)
WX AWOS-3PT at EDN (16 nm SW): 118.9 (334-347-3524)
  • APCH/DEP SVC PRVDD BY JACKSONVILLE ARTCC ON FREQS 134.3/353.5 (DOTHAN RCAG) WHEN CAIRNS APCH/DEP CLSD.

Nearby radio navigation aids

VOR radial/distance  VOR name  Freq  Var
HEYr029/(3.8)HANCHEY VOR110.6003W
OZRr032/11.2CAIRNS VOR/DME111.2003W
RRSr310/13.1WIREGRASS VORTAC111.6002E
EDNr064/(16.6)ENTERPRISE VOR116.6003W
EUFr217/39.9EUFAULA VORTAC109.2002E

 
NDB name  Hdg/Dist  Freq  Var  ID
LOWE059/7.626903WLOR .-.. --- .-.
BOLL WEEVIL076/19.335203WBVG -... ...- --.
BLOOD138/34.536504WTOI - --- ..
SOYYA331/39.332902WSMY ... -- -.--

Airport Services

Fuel available: 100LL JET-A
100LL:AVGAS 24 HR CREDIT CARD SVC AVBL.
Parking: tiedowns
Airframe service: MAJOR
Powerplant service: MAJOR
Bottled oxygen: NONE
Bulk oxygen: NONE

Runway Information

Runway 13/31

Dimensions: 5152 x 80 ft. / 1570 x 24 m
Surface: asphalt, in fair condition
Weight bearing capacity: 
Double wheel: 25.0
Runway edge lights: medium intensity
RUNWAY 13  RUNWAY 31
Latitude: 31-26.129053N31-25.688437N
Longitude: 085-37.655898W085-36.808283W
Elevation: 357.9 ft.340.8 ft.
Traffic pattern: leftleft
Runway heading: 125 magnetic, 121 true305 magnetic, 301 true
Markings: nonprecision, in fair conditionnonprecision, in fair condition
Visual slope indicator: 4-light PAPI on right (3.60 degrees glide path)4-light PAPI on left (3.00 degrees glide path)
Runway end identifier lights: yesyes
Touchdown point: yes, no lightsyes, no lights
Obstructions: none11 ft. trees, 243 ft. from runway, 96 ft. right of centerline, 3:1 slope to clear
CLOSE-IN OBST: 9 FT TREES, 168 FT FM RWY 31 END, 101 FT RIGHT OF RWY CNTLN.

Airport Ownership and Management from official FAA records

Ownership: Publicly-owned
Owner: TOWN OF OZARK
P.O. BOX 1987
OZARK, AL 36361
Phone 334-774-5393
Manager: DENISE ELLIS
3269 HWY 231 S
OZARK, AL 36360
Phone 334-445-5045

Airport Operational Statistics

Aircraft based on the field: 52
Single engine airplanes: 43
Multi engine airplanes: 3
Helicopters: 6
    
Aircraft operations: avg 251/day *
59% transient general aviation
41% local general aviation
* for 12-month period ending 01 January 2018

Additional Remarks

LOW FLYING HOP IN TFC PAT.
RWY & PARL TWYS CNTRLN SEPN IS 240 FT.
PILOTS DEPG BLACKWELL VFR TO THE EAST OR NORTH RMN AT 1500 FT MSL OR BLW TIL APRXLY 5 MI FM THE ARPT TO AVOID CONFLICT WITH TFC ON IFR APCH TO THE DOTHAN ARPT.
FOR CD CTC CAIRNS APCH AT 334-255-8402, WHEN APCH CLSD CTC JACKSONVILLE ARTCC AT 904-845-1592.

Instrument Procedures

NOTE: All procedures below are presented as PDF files. If you need a reader for these files, you should download the free Adobe Reader.

NOT FOR NAVIGATION. Please procure official charts for flight.
FAA instrument procedures published for use from 26 January 2023 at 0901Z to 23 February 2023 at 0900z.

 
IAPs - Instrument Approach Procedures
RNAV (GPS) RWY 13 **CHANGED**   download
RNAV (GPS) RWY 31 **CHANGED**   download
VOR RWY 31 **CHANGED**   download
NOTE: Special Take-Off Minimums/Departure Procedures apply   download (488KB)

Other nearby airports with instrument procedures:

KHEY - Hanchey Army Heliport (Fort Rucker) (5 nm S)
KLOR - Lowe Army Heliport (Fort Rucker) (8 nm SW)
KOZR - Cairns Army Airfield (Fort Rucker) (11 nm SW)
KDHN - Dothan Regional Airport (11 nm SE)
KHDL - Headland Municipal Airport (16 nm E)
KEDN - Enterprise Municipal Airport (16 nm SW)
 
Loc | Ops | Rwys | IFR | FBO | Links
Com | Nav | Svcs | Stats | Notes
Area around 71J (Ozark/Blackwell Field Airport)
 
Road maps at: MapQuest Bing Google
 
Aerial photo
WARNING: Photo may not be current or correct
Aerial photo of 71J (Ozark/Blackwell Field Airport)
Photo by Bill Mansfield
Photo taken 20-Aug-2006
on final for runway 30

Do you have a better or more recent aerial photo of Ozark/Blackwell Field Airport that you would like to share? If so, please send us your photo.

 
Sectional chart

 
Airport distance calculator
Flying to Ozark/Blackwell Field Airport? Find the distance to fly.

From to 71J

Sunrise and sunset
Times for 27-Jan-2023
 Local
(UTC-6)
 Zulu
(UTC)
Morning civil twilight06:1312:13
Sunrise06:3912:39
Sunset17:1223:12
Evening civil twilight17:3723:37

Current date and time
Zulu (UTC)  28-Jan-2023 00:56:56
Local (UTC-6)  27-Jan-2023 18:56:56
 
METAR
KHEY 
5nm S 
280034Z AUTO 00000KT 10SM OVC260 06/02 A3032 RMK AO2 SLP272
KLOR 
8nm SW 
272355Z AUTO 00000KT 10SM BKN260 07/M01 A3033 RMK AO2 SLP256 T00651009 10131 20065 52004
KOZR 
10nm SW 
272355Z AUTO 00000KT 10SM CLR 08/M03 A3032 RMK AO2 SLP272 T00831032 10134 20083 50003
KDHN 
11nm SE 
272353Z 00000KT 10SM CLR 09/M01 A3036 RMK AO2 SLP281 T00941011 10133 20094 53004
KSXS 
12nm W 
272355Z AUTO 00000KT 10SM BKN260 08/M03 A3032 RMK AO2 SLP272 T00801035 10133 20080 51004
KHDL 
16nm E 
280035Z AUTO 00000KT 10SM CLR 07/03 A3034 RMK AO2
KEDN 
16nm SW 
280035Z AUTO 00000KT 10SM CLR 07/00 A3033 RMK AO2 T00661005
TAF
KOZR 
10nm SW 
271845Z 2718/2824 34007KT 9999 SCT200 QNH3023INS TX14/2720Z TN02/2810Z
KDHN 
11nm SE 
271728Z 2718/2818 28005KT P6SM FEW250 FM281500 10005KT P6SM SCT250
NOTAMs
Click for the latest NOTAMs
NOTAMs are issued by the DoD/FAA and will open in a separate window not controlled by AirNav.

 

 
 

FBO, Fuel Providers, and Aircraft Ground Support

  
 Business Name 
 
 Contact 
 
 Services / Description 
 
Fuel Prices
 
Comments
  
 City of Ozark (FBO)
334-445-5045
334-432-0039
[email]
Airport management, Aviation fuel, Aircraft ground handling, Aircraft parking (ramp or tiedown), Hangars, Hangar leasing / sales, Passenger terminal and lounge, ...

More info about City of Ozark (FBO)
Titan
100LL Jet A
FS --- $5.00 
SS $5.00 --- 
 Updated 19-Jan-2023
 
   write
FS=Full service
SS=Self service
Update Fuel Prices
 

Would you like to see your business listed on this page?

 If your business provides an interesting product or service to pilots, flight crews, aircraft, or users of the Ozark/Blackwell Field Airport, you should consider listing it here.  To start the listing process, click on the button below
 
Add a business
 

Other Pages about Ozark/Blackwell Field Airport

Update a link
 
Copyright © AirNav, LLC. All rights reserved. Privacy Policy  Contact